Regional Weather Roundup
Issued by NWS

Home | Current Version | Previous Version | Text Only | Print | Product List | Glossary On
Versions: 1 2 3 4 5 6 7 8 9 10 11 12 13 14 15 16 17 18 19 20 21 22 23 24 25 26 27 28 29 30 31 32 33 34 35 36 37 38 39 40 41 42 43 44 45 46 47 48 49 50
836
ASUS44 KEWX 290003
RWRTX
SOUTH TEXAS REGIONAL WEATHER ROUNDUP
NATIONAL WEATHER SERVICE AUSTIN/SAN ANTONIO TX
700 PM CDT TUE MAR 28 2017

NOTE: "FAIR" INDICATED FEW OR NO CLOUDS BELOW 12,000 FEET WITH NO
SIGNIFICANT WEATHER AND/OR OBSTRUCTIONS TO VISIBILITY.

* - THESE STATIONS ARE NOT NWS OR FAA STATIONS...AND ARE NOT SUBJECT
    TO NWS AND FAA QUALITY CONTROL.

TXZ171-172-183>190-290100-
TEXAS HILL COUNTRY AND EDWARDS PLATEAU

CITY           SKY/WX    TMP DP  RH WIND       PRES   REMARKS
JUNCTION       CLOUDY    78  64  61 SE12      29.64R
6HR MIN TEMP:  72; 6HR MAX TEMP:  79; 6HR PCP: TRACE;

*LLANO         RAIN      81  61  50 S15G24    29.68F
BURNET         CLOUDY    78  56  46 SE12G26   29.70S
6HR MIN TEMP:  76; 6HR MAX TEMP:  82;

*HORSESHOE BAY CLOUDY    80  55  41 S10G22    29.67S
6HR MIN TEMP:  77; 6HR MAX TEMP:  84;

*KERRVILLE     CLOUDY    79  62  57 SE21G26   29.66F
6HR MIN TEMP:  73; 6HR MAX TEMP:  79;

*FREDERICKSBRG CLOUDY    76  55  47 SE12G21   29.67F
*ROCKSPRINGS   MOSUNNY   73  64  73 S17G23    29.65R
*BOERNE STAGE  CLOUDY    75  55  50 SE10G21   29.68S
*CASTROVILLE   CLOUDY    81  55  40 SE18G28   29.65S
HONDO          PTSUNNY   82  59  45 SE18G28   29.62F
6HR MIN TEMP:  77; 6HR MAX TEMP:  84;

*UVALDE        MOSUNNY   82  66  59 E16G23    29.57F
6HR MIN TEMP:  72; 6HR MAX TEMP:  85;

DEL RIO        MOSUNNY   83  65  54 E15G26    29.48F
6HR MIN TEMP:  74; 6HR MAX TEMP:  84;

LAUGHLIN AFB   NOT AVBL
CARRIZO SPRGS  SUNNY     88  63  42 SE12G22   29.53S
*EAGLE PASS    CLEAR     86  61  42 SE13G18   29.49F
$$

TXZ173-191>194-202-209-217>225-228-290100-
CENTRAL AND SOUTH CENTRAL TEXAS

CITY           SKY/WX    TMP DP  RH WIND       PRES   REMARKS
GEORGETOWN     PTCLDY    81  55  41 SE10G21   29.67S
AUSTIN/BERGSTM PTCLDY    82  57  42 SE26G37   29.66F
6HR MIN TEMP:  82; 6HR MAX TEMP:  88; 6HR PCP: TRACE;

AUSTIN/MABRY   PTCLDY    81  60  48 SE18G33   29.68S
6HR MIN TEMP:  81; 6HR MAX TEMP:  86;

*AUSTIN/EXEC   CLEAR     79  59  50 SE18G30   29.68S
*LAGO VISTA    PTCLDY    80  57  46 SE13G24   29.69S
6HR MIN TEMP:  78; 6HR MAX TEMP:  82;

SAN MARCOS     CLEAR     79  55  44 SE24G33   29.68S
6HR MIN TEMP:  79; 6HR MAX TEMP:  86;

NEW BRAUNFELS  CLOUDY    81  57  43 SE25G31   29.65S
6HR MIN TEMP:  81; 6HR MAX TEMP:  88; 6HR PCP: TRACE;

RANDOLPH AFB   CLOUDY    78  60  53 SE18      29.66S
6HR MIN TEMP:  78; 6HR MAX TEMP:  85;

PT SAN ANTONIO PTSUNNY   79  59  49 SE20G30   29.62F
6HR MIN TEMP:  79; 6HR MAX TEMP:  83;

SAN ANTONIO    PTSUNNY   79  59  50 SE25G32   29.65F
6HR MIN TEMP:  79; 6HR MAX TEMP:  83;

STINSON FIELD  PTSUNNY   80  60  50 SE17G23   29.62F
6HR MIN TEMP:  80; 6HR MAX TEMP:  85;

*PLEASANTON    SUNNY     80  63  54 SE15G30   29.63R
6HR MIN TEMP:  80; 6HR MAX TEMP:  87;

*LA GRANGE     CLEAR     80  66  61 SE16G26   29.69S
6HR MIN TEMP:  80; 6HR MAX TEMP:  87;

*GIDDINGS      CLEAR     79  61  53 S17G29    29.71S
6HR MIN TEMP:  79; 6HR MAX TEMP:  85;

*GONZALES      PTCLDY    81  66  61 SE14G29   29.68S
$$

TXZ163>164-176>182-195>201-210>213-226-227-235-290100-
SOUTHEAST TEXAS

CITY           SKY/WX    TMP DP  RH WIND       PRES   REMARKS
COLLEGE STN    CLEAR     80  64  58 SE21G31   29.72R
6HR MIN TEMP:  80; 6HR MAX TEMP:  87;

*BRYAN         CLEAR     79  62  56 SE18G32   29.74R
*CALDWELL      NOT AVBL
*CROCKETT      PTCLDY    81  63  54 S12G17    29.78S
*BRENHAM       PTCLDY    80  65  60 SE14G24   29.74R
6HR MIN TEMP:  80; 6HR MAX TEMP:  88;

HUNTSVILLE     CLEAR     79  61  53 SE13G24   29.76S
6HR MIN TEMP:  79; 6HR MAX TEMP:  85;

CONROE         CLEAR     76  65  68 SE20G28   29.78S
6HR MIN TEMP:  76; 6HR MAX TEMP:  85;

HOUSTON BUSH   MOCLDY    77  68  73 SE18G31   29.78R
6HR MIN TEMP:  77; 6HR MAX TEMP:  83;

HOUSTON HOBBY  CLOUDY    76  69  79 SE13G26   29.78R
6HR MIN TEMP:  76; 6HR MAX TEMP:  84;

*HOUSTON SW AP CLOUDY    75  69  83 SE13G20   29.79R
6HR MIN TEMP:  75; 6HR MAX TEMP:  82;

PEARLAND       CLOUDY    79  70  74 SE18G28   29.79S
6HR MIN TEMP:  79; 6HR MAX TEMP:  85;

HOUSTON HOOKS  PTCLDY    78  66  66 SE15G30   29.76S
6HR MIN TEMP:  78; 6HR MAX TEMP:  86;

ELLINGTON FLD  MOCLDY    79  75  89 SE16      29.80S
SUGAR LAND     CLOUDY    78  70  76 SE23G31   29.77R
6HR MIN TEMP:  78; 6HR MAX TEMP:  86;

*HOUSTON EXEC  MOCLDY    77  68  73 SE18G25   29.77R
*CLEVELAND MUN PTCLDY    77  66  69 S14G21    29.81R
*WHARTON       CLOUDY    77  67  71 SE20      29.75S
*COLUMBUS      FAIR      77  66  68 SE16G25   29.74S
6HR MIN TEMP:  77; 6HR MAX TEMP:  85;

*EAGLE LAKE    PTCLDY    78  69  74 S20G28    29.75R
6HR MIN TEMP:  78; 6HR MAX TEMP:  86;

$$

TXZ214>216-236>238-290100-
THE UPPER TEXAS COAST

CITY           SKY/WX    TMP DP  RH WIND       PRES   REMARKS
*ORANGE        CLOUDY    75  69  80 SE13G18   29.86F
6HR MIN TEMP:  75; 6HR MAX TEMP:  81;

PORT ARTHUR    CLOUDY    75  68  78 SE17G25   29.82F
6HR MIN TEMP:  75; 6HR MAX TEMP:  84;

GALVESTON      CLOUDY    76  72  87 SE18G28   29.80R
6HR MIN TEMP:  76; 6HR MAX TEMP:  81;

ANGLETON       CLOUDY    76  71  85 SE13G24   29.78R
6HR MIN TEMP:  76; 6HR MAX TEMP:  84;

*BAY CITY      CLOUDY    77  72  83 SE16      29.75S
PALACIOS       CLOUDY    77  71  82 SE20G30   29.74R
6HR MIN TEMP:  77; 6HR MAX TEMP:  83;

$$

TXZ229>234-239>247-290100-
TEXAS COASTAL BEND AND RIO GRANDE PLAINS

CITY           SKY/WX    TMP DP  RH WIND       PRES   REMARKS
VICTORIA       CLOUDY    79  69  71 SE22G32   29.71S
6HR MIN TEMP:  79; 6HR MAX TEMP:  87;

*BEEVILLE      MOCLDY    78  70  76 SE18G29   29.65F
6HR MIN TEMP:  78; 6HR MAX TEMP:  87;

ROCKPORT       NOT AVBL
*PORT ARANSAS  CLOUDY    74  72  91 SE16G23   29.67F
6HR MIN TEMP:  74; 6HR MAX TEMP:  79;

*PORT LAVACA   CLOUDY    77  73  87 SE17G26   29.72R
6HR MIN TEMP:  77; 6HR MAX TEMP:  83;

*INGLESIDE     MOCLDY    78  73  85 SE15G30   29.66F
CORPUS CHRISTI MOCLDY    78  71  79 SE29G35   29.65F
6HR MIN TEMP:  78; 6HR MAX TEMP:  85;

CORPUS NAS     CLOUDY    77  73  87 SE23      29.64F
6HR MIN TEMP:  77; 6HR MAX TEMP:  83;

*ROBSTOWN      MOCLDY    81  70  70 SE24G33   29.65S
ALICE          MOCLDY    80  69  69 SE16G30   29.61F
6HR MIN TEMP:  79; 6HR MAX TEMP:  90;

KINGSVILLE NAS MOCLDY    79  72  79 SE18G31   29.62F
6HR MIN TEMP:  79; 6HR MAX TEMP:  88;

COTULLA        SUNNY     86  64  47 SE18G32   29.56S
6HR MIN TEMP:  82; 6HR MAX TEMP:  91;

*FAITH RANCH   SUNNY     91  61  35 SE13G24   29.53R HX  91
LAREDO         SUNNY     88  66  48 SE26G33   29.53S HX  90
6HR MIN TEMP:  84; 6HR MAX TEMP:  94;

$$

TXZ248>255-290100-
DEEP SOUTH TEXAS

CITY           SKY/WX    TMP DP  RH WIND       PRES   REMARKS
BROWNSVILLE    MOCLDY    79  71  76 SE17G26   29.66R
6HR MIN TEMP:  79; 6HR MAX TEMP:  86;

PORT ISABEL    MOCLDY    81  72  74 SE23G30   29.65S
6HR MIN TEMP:  80; 6HR MAX TEMP:  88;

*SOUTH PADRE   NOT AVBL
HARLINGEN      PTCLDY    80  70  71 SE24      29.63S
6HR MIN TEMP:  80; 6HR MAX TEMP:  89;

*HEBBRONVILLE  MOSUNNY   84  61  45 SE20G29   29.59F
MCALLEN        PTCLDY    85  68  56 SE28G37   29.59F
6HR MIN TEMP:  81; 6HR MAX TEMP:  92;

*WESLACO



USA.gov is the U.S. government's official web portal to all federal, state and local government web resources and services.